Regional Weather Roundup
Issued by NWS Jackson, KY

Home | Current Version | Previous Version | Graphics & Text | Print | Product List | Glossary On
Versions: 1 2 3 4 5 6 7 8 9 10 11 12 13 14 15 16 17 18 19 20 21 22 23 24 25 26 27 28
000
ASUS43 KJKL 260610
RWRJKL

EAST KENTUCKY HOURLY WEATHER ROUNDUP
NATIONAL WEATHER SERVICE JACKSON KY
200 AM EDT FRI MAY 26 2017

NOTE: "FAIR" INDICATES FEW OR NO CLOUDS BELOW 12,000 FEET WITH
NO SIGNIFICANT WEATHER AND/OR OBSTRUCTIONS TO VISIBILITY.

* THESE REPORTS ARE NOT UNDER NWS QUALITY CONTROL AND MAY NOT
  REPORT WEATHER SUCH AS PRECIPITATION AND FOG.

KYZ079-080-083-085-087-088-110-112-115-119-120-260700
...EASTERN KENTUCKY...

CITY           SKY/WX    TMP DP  RH WIND       PRES   REMARKS
JACKSON        PTCLDY    57  56  96 VRB3      29.86R
6HR MIN TEMP:  57; 6HR MAX TEMP:  58;

LONDON         CLEAR     58  53  84 SW3       29.88R
6HR MIN TEMP:  57; 6HR MAX TEMP:  62;

SOMERSET*      CLEAR     54  54 100 CALM      29.90R FOG
MONTICELLO*    CLEAR     49  49 100 VRB3      29.92R
6HR MIN TEMP:  49; 6HR MAX TEMP:  66;

WILLIAMSBURG*  CLEAR     55  55 100 SW3       29.90R
MIDDLESBORO*   MOCLDY    57  54  88 W3        29.90R
6HR MIN TEMP:  56; 6HR MAX TEMP:  64;

HARLAN APT*    CLOUDY    55  54  94 CALM      29.89S
PIKE CO APT*   MOCLDY    58  58 100 SW6       29.85R
BIG SANDY APT* CLEAR     58  57  94 W5        29.84R
6HR MIN TEMP:  58; 6HR MAX TEMP:  60;

MOREHEAD APT*  MOCLDY    57  52  82 W6        29.85R
ASHLAND*       CLOUDY    63  57  82 W6        29.77S
$$

KYZ035-036-041-042-044-050-067-078-099-260700
...CENTRAL KENTUCKY...

CITY           SKY/WX    TMP DP  RH WIND       PRES   REMARKS
MT STERLING*   MOCLDY    59  54  82 W5        29.86R
FLEMING/MASON* PTCLDY    56  53  90 W8        29.83S
DANVILLE*      CLEAR     57  54  88 W5        29.88R
LEXINGTON      PTCLDY    56  53  90 SW5       29.86R
6HR MIN TEMP:  56; 6HR MAX TEMP:  64;

FRANKFORT      PTCLDY    56  52  86 SW5       29.84R
6HR MIN TEMP:  55; 6HR MAX TEMP:  66;

LOUISVILLE     PTCLDY    61  57  87 CALM      29.84R
6HR MIN TEMP:  59; 6HR MAX TEMP:  69;

LEBANON*         N/A     57  54  88 S5        29.87R
GLASGOW*       CLEAR     56  52  89 CALM      29.88S
BOWLING GREEN  CLEAR     60  53  77 SW3       29.88R
6HR MIN TEMP:  60; 6HR MAX TEMP:  71;

$$

KYZ091>093-OHZ055-061-077-WVZ005-015-034-035-042-260700
...SOUTHERN OHIO/WEST VIRGINIA...

CITY           SKY/WX    TMP DP  RH WIND       PRES   REMARKS
COVINGTON      CLEAR     56  53  90 W7        29.82R
COLUMBUS       CLOUDY    60  57  89 W17       29.72R
DAYTON         PTCLDY    58  54  86 W15       29.78R
WILMINGTON     CLEAR     58  56  93 W14       29.77R
HUNTINGTON     CLOUDY    61  56  83 SW8       29.79R
CHARLESTON     CLOUDY    60  56  86 SW12      29.77R
PINEVILLE*     DRIZZLE   57  56  94 MISG      29.87R
BECKLEY        LGT RAIN  54  52  93 W10G18    29.81R
BLUEFIELD      CLOUDY    53  50  89 W17G26    29.83R
LOGAN CO APT*  CLOUDY    57  55  94 W10G18    29.82R
$$

VAZ002-007-008-TNZ017-027-036-066-071-260700
...SOUTHWEST VIRGINIA/EAST TENNESSEE...

CITY           SKY/WX    TMP DP  RH WIND       PRES   REMARKS
WISE*          CLOUDY    57  55  94 W8G18     29.89S
JONESVILLE*      N/A     57  55  94 SW6       29.91R
ABINGDON*      CLOUDY    58  58  99 W7        29.88R
BRISTOL        CLOUDY    59  55  87 SW7       29.88R
MORRISTOWN*    MOCLDY    57  54  88 SW6       29.89S
SEVIERVILLE*   CLEAR     55  50  82 SW3       29.90S
KNOXVILLE      CLEAR     57  52  83 S3        29.91R
LAFOLLETTE*    CLEAR     61  52  72 CALM      29.92S
OAK RIDGE      CLEAR     56  52  86 CALM      29.92R
CROSSVILLE     PTCLDY    54  50  86 SW3       29.94R
NASHVILLE      CLEAR     56  52  86 S6        29.89S
$$

...KEY TO REMARKS...
VSB - VISIBILITY IN MILES
WCI - WIND CHILL INDEX
HX  - HEAT INDEX

$$




USA.gov is the U.S. government's official web portal to all federal, state and local government web resources and services.